This is the latest recevied weather packets stored in our database for station/object G4AAX-10. If no packets are shown the sender has not sent any weather packets the latest 10 day(s).
| Time | Temp. | Humidity | Pressure | Rain* | Wind** | Luminosity | Snow |
|---|---|---|---|---|---|---|---|
| 1777304588 | 21.11° C | 45% | 1028.8 hPa | - | - | - | - |
| 1777302788 | 21.11° C | 44% | 1028.6 hPa | - | - | - | - |
| 1777300988 | 21.11° C | 45% | 1028.6 hPa | - | - | - | - |
| 1777299188 | 21.11° C | 45% | 1028.6 hPa | - | - | - | - |
| 1777297388 | 21.11° C | 45% | 1028.5 hPa | - | - | - | - |
| 1777295587 | 21.11° C | 44% | 1028.4 hPa | - | - | - | - |
| 1777293787 | 21.67° C | 44% | 1028.5 hPa | - | - | - | - |
| 1777291987 | 21.67° C | 47% | 1028.4 hPa | - | - | - | - |
| 1777290187 | 20° C | 47% | 1028.2 hPa | - | - | - | - |
| 1777288387 | 19.44° C | 45% | 1028.1 hPa | - | - | - | - |
| 1777286586 | 19.44° C | 46% | 1027.9 hPa | - | - | - | - |
| 1777284786 | 19.44° C | 45% | 1027.7 hPa | - | - | - | - |
| 1777282986 | 19.44° C | 46% | 1027.7 hPa | - | - | - | - |
| 1777281186 | 18.89° C | 46% | 1027.4 hPa | - | - | - | - |
| 1777279386 | 18.89° C | 46% | 1027.6 hPa | - | - | - | - |
| 1777277586 | 18.33° C | 46% | 1027.1 hPa | - | - | - | - |
| 1777275785 | 18.33° C | 46% | 1027 hPa | - | - | - | - |
| 1777273985 | 18.33° C | 46% | 1026.9 hPa | - | - | - | - |
| 1777272185 | 18.33° C | 46% | 1026.8 hPa | - | - | - | - |
| 1777270385 | 18.33° C | 45% | 1026.8 hPa | - | - | - | - |
| 1777268585 | 18.33° C | 45% | 1026.5 hPa | - | - | - | - |
| 1777266785 | 18.33° C | 46% | 1026.1 hPa | - | - | - | - |
| 1777264985 | 18.33° C | 45% | 1026 hPa | - | - | - | - |
| 1777263184 | 18.33° C | 45% | 1026 hPa | - | - | - | - |
| 1777261384 | 18.89° C | 45% | 1025.9 hPa | - | - | - | - |
* Rain since midnight (hover to see other rain measurements)
** Current wind speed in m/s (hover to see current wind gust speed)